This is the latest recevied weather packets stored in our database for station/object KV9E. If no packets are shown the sender has not sent any weather packets the latest 10 day(s).
| Time | Temp. | Humidity | Pressure | Rain* | Wind** | Luminosity | Snow |
|---|---|---|---|---|---|---|---|
| 1777593637 | 11.67° C | 57% | 1013.7 hPa | 0 mm | - | 16 W/m² | - |
| 1777593333 | 11.67° C | 57% | 1013.5 hPa | 0 mm | - | 23 W/m² | - |
| 1777593027 | 11.67° C | 54% | 1013.4 hPa | 0 mm | - | 23 W/m² | - |
| 1777592726 | 12.22° C | 56% | 1013.5 hPa | 0 mm | - | 26 W/m² | - |
| 1777592423 | 12.22° C | 56% | 1013.6 hPa | 0 mm | - | 30 W/m² | - |
| 1777592118 | 12.22° C | 55% | 1013.6 hPa | 0 mm | - | 32 W/m² | - |
| 1777591816 | 12.78° C | 53% | 1013.6 hPa | 0 mm | - | 42 W/m² | - |
| 1777591511 | 12.78° C | 55% | 1013.6 hPa | 0 mm | - | 33 W/m² | - |
| 1777591208 | 12.78° C | 54% | 1013.5 hPa | 0 mm | - | 31 W/m² | - |
| 1777590902 | 13.33° C | 52% | 1013.7 hPa | 0 mm | - | 47 W/m² | - |
| 1777590599 | 13.89° C | 53% | 1013.7 hPa | 0 mm | - | 67 W/m² | - |
| 1777590295 | 14.44° C | 49% | 1013.5 hPa | 0 mm | - | 79 W/m² | - |
| 1777589992 | 13.89° C | 52% | 1013.8 hPa | 0 mm | - | 104 W/m² | - |
| 1777589688 | 14.44° C | 48% | 1013.7 hPa | 0 mm | - | 149 W/m² | - |
| 1777589386 | 14.44° C | 50% | 1013.7 hPa | 0 mm | - | 92 W/m² | - |
| 1777589083 | 14.44° C | 53% | 1013.6 hPa | 0 mm | - | 129 W/m² | - |
| 1777588779 | 13.89° C | 49% | 1013.6 hPa | 0 mm | - | 112 W/m² | - |
| 1777588475 | 13.89° C | 49% | 1013.8 hPa | 0 mm | - | 168 W/m² | - |
| 1777588170 | 14.44° C | 48% | 1013.8 hPa | 0 mm | - | 173 W/m² | - |
| 1777587866 | 14.44° C | 48% | 1013.8 hPa | 0 mm | - | 130 W/m² | - |
| 1777587562 | 15° C | 48% | 1013.7 hPa | 0 mm | - | 235 W/m² | - |
| 1777587257 | 15° C | 45% | 1013.8 hPa | 0 mm | - | 192 W/m² | - |
| 1777586953 | 15.56° C | 46% | 1013.8 hPa | 0 mm | - | 271 W/m² | - |
| 1777586649 | 15° C | 46% | 1013.7 hPa | 0 mm | - | 283 W/m² | - |
| 1777586344 | 15° C | 47% | 1013.6 hPa | 0 mm | - | 225 W/m² | - |
* Rain latest hour (hover to see other rain measurements)
** Current wind speed in m/s (hover to see current wind gust speed)